TimeEDT,TemperatureF,Dew PointF,Humidity,Sea Level PressureIn,VisibilityMPH,Wind Direction,Wind SpeedMPH,Gust SpeedMPH,PrecipitationIn,Events,Conditions,WindDirDegrees,DateUTC
12:54 AM,60.1,55.9,86,29.92,-9999.0,South,4.6,-,N/A,,Clear,170,2012-10-06 04:54:00
1:54 AM,60.1,55.9,86,29.91,-9999.0,South,3.5,-,N/A,,Clear,190,2012-10-06 05:54:00
2:54 AM,60.1,55.9,86,29.89,-9999.0,South,3.5,-,N/A,,Clear,180,2012-10-06 06:54:00
3:54 AM,60.1,57.0,90,29.88,-9999.0,South,3.5,-,N/A,,Clear,180,2012-10-06 07:54:00
4:54 AM,57.9,55.9,93,29.87,-9999.0,South,4.6,-,N/A,,Clear,180,2012-10-06 08:54:00
5:54 AM,57.0,55.9,96,29.86,-9999.0,Calm,Calm,-,N/A,,Clear,0,2012-10-06 09:54:00
6:54 AM,57.0,55.9,96,29.86,-9999.0,South,3.5,-,N/A,,Clear,180,2012-10-06 10:54:00
7:54 AM,59.0,57.9,96,29.85,-9999.0,SSW,4.6,-,N/A,,Clear,200,2012-10-06 11:54:00
8:54 AM,64.9,60.1,84,29.84,-9999.0,SSW,8.1,-,N/A,,Clear,200,2012-10-06 12:54:00
9:54 AM,68.0,60.1,76,29.82,-9999.0,SSW,6.9,-,N/A,,Clear,200,2012-10-06 13:54:00
10:54 AM,73.0,60.1,64,29.81,-9999.0,SSW,9.2,-,N/A,,Partly Cloudy,200,2012-10-06 14:54:00
11:54 AM,73.0,60.1,64,29.81,-9999.0,SW,9.2,-,N/A,,Overcast,230,2012-10-06 15:54:00
12:54 PM,72.0,59.0,64,29.81,-9999.0,Variable,5.8,17.3,N/A,,Mostly Cloudy,0,2012-10-06 16:54:00
1:54 PM,69.1,55.9,63,29.80,-9999.0,West,11.5,23.0,N/A,,Overcast,270,2012-10-06 17:54:00
2:54 PM,70.0,57.0,63,29.82,-9999.0,WNW,13.8,25.3,N/A,,Partly Cloudy,290,2012-10-06 18:54:00
3:54 PM,66.0,55.0,68,29.85,-9999.0,WNW,9.2,21.9,N/A,,Overcast,300,2012-10-06 19:54:00
4:05 PM,66.2,55.4,68,29.86,-9999.0,WNW,8.1,18.4,N/A,,Overcast,300,2012-10-06 20:05:00
4:54 PM,64.9,51.1,61,29.87,-9999.0,NW,13.8,21.9,N/A,,Mostly Cloudy,320,2012-10-06 20:54:00
5:54 PM,63.0,51.1,65,29.89,-9999.0,NW,5.8,-,N/A,,Clear,310,2012-10-06 21:54:00
6:54 PM,57.9,46.0,65,29.92,-9999.0,NW,6.9,-,N/A,,Clear,320,2012-10-06 22:54:00
7:54 PM,55.9,44.1,64,29.96,-9999.0,NW,5.8,-,N/A,,Clear,320,2012-10-06 23:54:00
8:54 PM,54.0,43.0,66,29.98,-9999.0,NW,3.5,-,N/A,,Clear,310,2012-10-07 00:54:00
9:54 PM,52.0,43.0,71,29.99,-9999.0,NW,3.5,-,N/A,,Clear,310,2012-10-07 01:54:00
10:54 PM,52.0,42.1,69,30.01,-9999.0,NW,4.6,-,N/A,,Clear,310,2012-10-07 02:54:00
11:54 PM,48.9,42.1,77,30.01,-9999.0,Calm,Calm,-,N/A,,Clear,0,2012-10-07 03:54:00